Temp
65 61 58 55 48 41 36 44 44 47 50 57 59 61 63 61 63 56 66 71 73 73 75 76 77 77 78 77 77 77 77 77 77 78 78 78 78 78 78 78 78 78 79 78 78 78 77 77 77
60 61 56 47 40 34 38 42 49 54 54 56 59 56 58 60 61 65 66 72 75 74 75 76 77 77 77 77 77 77 77 77 77 78 78 79 78 78 78 78 77 77 78 77 77 76 76 76 76
63 62 51 44 36 36 39 45 51 54 58 56 54 58 57 60 64 67 69 73 74 74 75 75 76 77 77 77 77 77 77 77 78 78 78 79 78 77 78 78 77 76 77 76 76 76 76 76 76
57 54 49 40 36 40 44 47 50 51 56 57 56 55 59 65 68 68 73 74 73 73 74 75 76 77 76 76 77 77 77 77 77 78 77 77 77 77 77 76 75 75 75 75 76 76 76 75 75
53 48 39 33 36 40 43 48 49 51 52 56 59 53 54 63 68 73 73 74 72 72 74 74 76 76 76 76 76 76 76 77 76 77 77 77 76 76 76 75 75 75 75 75 76 76 76 75 74
47 45 33 36 36 42 45 51 50 53 55 53 57 57 57 67 70 72 74 73 75 73 73 74 74 75 75 76 76 76 76 76 76 76 77 77 76 76 75 75 75 75 75 75 76 76 75 74 74
44 39 34 32 38 41 47 53 51 53 55 57 61 55 57 65 71 73 74 73 73 73 72 73 73 73 73 74 74 75 75 75 75 75 75 75 74 74 75 75 75 75 75 74 75 75 75 74 74
47 43 33 36 38 41 50 52 55 58 57 59 64 54 58 66 70 71 72 73 72 72 72 73 72 72 72 73 72 73 73 73 74 73 71 70 70 71 73 72 74 74 74 74 74 75 74 73 72
49 38 33 38 39 45 49 50 53 55 58 57 61 60 63 69 69 69 68 69 70 71 73 73 72 71 70 70 71 70 71 71 70 69 67 66 65 66 67 68 71 73 73 73 74 73 72 70 69
46 36 40 45 45 46 51 52 53 54 55 54 56 61 66 68 67 66 65 66 68 68 70 72 72 71 70 72 69 69 70 69 69 66 64 63 62 63 66 68 70 72 72 72 72 71 69 65 61
45 43 49 48 50 51 51 50 54 52 49 56 56 60 65 66 66 66 66 67 68 70 69 71 71 71 69 69 68 68 68 67 66 64 63 62 62 61 61 61 61 63 66 64 66 65 63 60 60
40 49 48 51 53 51 49 53 50 52 55 61 62 63 65 64 64 65 65 66 67 67 68 69 70 70 68 68 68 68 67 65 64 62 63 62 59 59 59 58 59 61 61 59 59 59 59 60 60
42 43 52 50 51 51 51 50 51 51 57 57 62 63 64 65 65 67 67 68 67 67 68 68 69 68 67 67 68 68 67 64 63 62 63 63 60 58 58 57 58 59 59 58 58 59 60 60 60
46 50 48 51 52 49 49 48 49 53 53 57 61 61 64 65 66 65 65 65 66 67 66 67 67 67 66 66 67 68 67 64 63 61 63 62 61 59 58 57 57 58 59 58 58 59 59 59 60
50 40 48 51 46 47 49 46 46 53 53 56 59 60 62 64 65 65 66 65 66 66 67 66 66 66 66 65 65 67 67 65 63 62 61 62 62 60 59 57 56 57 58 58 58 58 58 58 60
43 40 36 44 49 47 50 41 49 53 52 53 59 58 58 58 62 63 66 65 64 65 66 66 67 66 65 65 65 66 66 65 64 63 62 63 67 64 59 58 57 57 58 58 57 57 56 56 57
39 34 35 40 49 46 46 39 50 52 51 51 58 56 54 53 54 55 58 60 62 64 64 65 66 66 65 65 65 65 66 65 64 63 62 62 65 66 63 63 62 58 57 57 58 56 56 55 55
32 36 31 36 40 46 40 39 46 50 51 51 51 52 51 50 48 51 54 54 55 57 60 63 63 64 64 65 64 64 65 65 65 64 63 63 65 65 64 63 63 63 62 60 57 56 55 55 55
35 31 34 33 44 41 44 42 47 48 50 47 46 48 47 45 46 48 50 51 52 52 54 55 58 59 61 63 63 63 63 63 64 65 65 63 66 65 64 63 62 63 63 62 62 61 59 56 55
38 34 32 37 42 40 39 41 42 43 40 41 45 43 42 41 42 45 46 46 45 48 49 52 55 56 57 59 60 61 62 61 63 63 64 64 63 65 64 64 63 63 61 61 62 61 58 58 58
34 34 35 33 38 36 36 32 38 38 37 38 37 38 39 40 38 40 42 42 42 42 46 51 53 55 55 57 58 58 60 61 58 61 62 62 63 63 65 65 64 63 62 60 60 62 61 57 57
28 38 39 36 32 27 36 24 31 33 32 31 31 32 35 37 39 38 39 38 39 40 45 48 50 51 53 53 56 59 60 58 61 60 60 60 62 61 62 63 64 64 63 59 62 62 63 61 57
29 39 37 38 33 32 30 27 27 30 29 29 29 30 31 34 36 35 35 38 38 40 41 45 47 47 47 49 52 54 55 56 57 58 61 60 60 60 60 60 59 60 62 63 63 61 61 62 59
35 35 35 35 32 25 29 33 23 25 26 25 26 28 29 32 34 35 36 38 37 39 40 41 43 43 44 46 48 51 52 53 54 54 55 56 58 59 60 59 59 60 61 61 60 61 62 59 61
24 28 21 22 22 23 32 28 16 20 25 26 24 26 27 29 31 32 31 33 36 36 37 41 40 40 42 43 47 52 52 53 53 54 54 54 55 56 58 59 58 59 59 63 63 62 62 61 60
17 19 21 18 19 23 32 24 15 21 24 25 25 25 27 26 28 29 30 32 33 35 36 37 38 39 40 41 44 48 51 55 56 54 54 55 55 56 57 58 58 59 60 62 61 61 61 61 60
14 16 15 13 27 26 17 10 20 23 22 22 23 23 22 24 25 26 29 31 32 33 34 36 37 38 39 40 41 45 48 50 51 57 57 55 56 57 57 57 57 58 59 60 61 59 60 60 59
12 14 13 13 9 15 8 9 10 17 19 21 20 19 20 23 24 25 27 28 31 32 34 36 37 37 38 39 40 42 44 47 50 53 56 57 55 56 56 56 57 57 57 58 60 59 57 58 58
8 6 6 7 4 12 6 6 16 20 20 18 20 22 21 21 22 24 26 28 29 31 32 33 34 36 37 38 39 40 41 44 46 49 52 54 57 55 55 56 56 58 58 56 57 57 57 58 58
11 7 7 3 8 8 8 4 19 19 21 21 21 24 24 24 22 23 24 26 27 28 29 30 32 34 37 38 39 40 42 43 43 46 52 54 55 55 56 56 56 59 59 58 57 56 57 58 57
MSLP
1012.69 1012.93 1013.46 1014.18 1015.68 1016.32 1015.38 1014.14 1012.87 1012.04 1011.36 1010.24 1009.67 1009.86 1009.78 1009.86 1010.46 1011.57 1011.04 1011.16 1011.65 1012.51 1013.05 1013.63 1014.02 1014.53 1014.99 1015.46 1015.78 1016.07 1016.43 1016.62 1016.91 1017.18 1017.49 1017.74 1018.08 1018.39 1018.56 1018.68 1018.76 1018.85 1019.04 1019.33 1019.39 1019.69 1019.94 1020.14 1020.29
1012.79 1013.23 1014.04 1015.21 1016.14 1016.41 1015.05 1013.55 1012.36 1011.30 1010.48 1009.98 1009.76 1009.79 1009.92 1010.08 1010.19 1010.57 1011.08 1011.31 1011.67 1012.44 1013.06 1013.68 1014.13 1014.58 1015.04 1015.66 1015.96 1016.28 1016.63 1016.88 1017.14 1017.42 1017.71 1017.98 1018.42 1018.56 1018.85 1019.00 1019.19 1019.35 1019.62 1019.92 1020.05 1020.24 1020.42 1020.55 1020.66
1012.84 1013.39 1014.74 1015.57 1016.05 1015.30 1014.36 1012.61 1011.48 1010.76 1010.35 1010.19 1010.01 1009.81 1009.96 1010.13 1010.30 1010.51 1010.66 1011.14 1011.60 1012.54 1013.10 1013.69 1014.20 1014.73 1015.20 1015.78 1016.16 1016.48 1016.84 1017.19 1017.39 1017.61 1017.95 1018.31 1018.69 1018.87 1019.07 1019.37 1019.67 1019.96 1020.12 1020.35 1020.50 1020.63 1020.79 1020.93 1021.14
1013.27 1014.29 1015.61 1015.70 1015.28 1014.40 1013.27 1011.76 1011.22 1010.65 1010.10 1010.12 1009.90 1010.07 1010.05 1009.94 1010.07 1010.33 1010.72 1011.31 1011.90 1012.57 1013.14 1013.78 1014.27 1014.81 1015.36 1015.83 1016.39 1016.71 1017.08 1017.43 1017.74 1017.96 1018.40 1018.71 1019.00 1019.19 1019.46 1019.79 1020.17 1020.42 1020.61 1020.69 1020.73 1020.84 1021.04 1021.31 1021.60
1013.95 1014.77 1015.81 1015.89 1014.97 1013.82 1012.75 1011.62 1010.99 1010.45 1010.07 1009.79 1009.82 1010.32 1010.43 1010.24 1010.14 1010.34 1010.90 1011.51 1012.02 1012.64 1013.18 1013.81 1014.35 1014.92 1015.44 1015.90 1016.48 1016.91 1017.29 1017.71 1018.08 1018.40 1018.74 1019.04 1019.36 1019.58 1019.82 1020.15 1020.49 1020.70 1020.89 1020.93 1020.94 1021.15 1021.44 1021.68 1021.96
1014.59 1015.18 1015.98 1015.51 1014.64 1013.36 1012.28 1011.29 1010.90 1010.30 1009.81 1009.85 1009.91 1010.37 1010.61 1010.50 1010.46 1010.58 1011.10 1011.74 1012.28 1012.77 1013.23 1013.89 1014.46 1015.02 1015.56 1016.02 1016.56 1017.04 1017.47 1017.92 1018.33 1018.68 1019.00 1019.35 1019.71 1020.02 1020.28 1020.53 1020.75 1020.96 1021.18 1021.26 1021.33 1021.49 1021.85 1022.12 1022.40
1014.39 1015.22 1015.18 1014.79 1013.97 1013.22 1011.44 1010.53 1010.58 1010.03 1009.56 1009.51 1009.47 1010.31 1010.85 1010.62 1010.61 1010.87 1011.37 1012.15 1012.63 1013.03 1013.44 1013.99 1014.63 1015.17 1015.69 1016.19 1016.64 1017.16 1017.64 1018.12 1018.55 1018.93 1019.31 1019.65 1020.03 1020.27 1020.45 1020.83 1021.05 1021.33 1021.53 1021.70 1021.76 1021.94 1022.24 1022.55 1022.91
1013.95 1014.54 1014.72 1014.25 1013.47 1011.92 1010.45 1010.00 1009.28 1009.44 1009.10 1008.92 1009.09 1009.64 1010.40 1010.06 1010.62 1011.09 1011.68 1012.38 1012.97 1013.42 1013.71 1014.16 1014.76 1015.33 1015.83 1016.35 1016.81 1017.31 1017.85 1018.37 1018.77 1019.22 1019.64 1020.03 1020.39 1020.66 1020.86 1021.15 1021.47 1021.78 1021.96 1022.14 1022.28 1022.41 1022.63 1022.87 1023.34
1013.59 1014.28 1014.12 1013.14 1012.62 1011.15 1009.91 1009.54 1008.94 1008.49 1008.70 1008.88 1008.87 1008.85 1008.74 1009.62 1010.58 1011.19 1011.83 1012.64 1013.15 1013.62 1013.99 1014.32 1014.86 1015.43 1015.98 1016.47 1017.00 1017.47 1018.10 1018.62 1019.06 1019.53 1020.02 1020.42 1020.80 1021.08 1021.36 1021.63 1021.83 1022.11 1022.37 1022.56 1022.72 1022.85 1023.11 1023.53 1023.84
1013.01 1013.24 1012.34 1011.52 1010.99 1010.29 1009.49 1009.19 1008.71 1008.67 1008.75 1008.99 1009.11 1009.04 1009.00 1009.82 1010.39 1010.82 1011.38 1012.23 1013.01 1013.51 1013.97 1014.43 1014.81 1015.45 1016.02 1016.56 1017.25 1017.75 1018.35 1018.92 1019.41 1019.86 1020.35 1020.79 1021.17 1021.51 1021.72 1021.93 1022.19 1022.40 1022.70 1022.93 1023.16 1023.51 1023.78 1024.11 1024.47
1011.91 1011.21 1011.06 1010.51 1010.16 1009.77 1009.38 1008.98 1008.54 1008.65 1008.81 1008.12 1008.43 1009.02 1009.15 1009.69 1010.40 1010.97 1011.53 1011.97 1012.63 1013.37 1013.98 1014.46 1014.89 1015.42 1016.02 1016.70 1017.41 1018.02 1018.57 1019.15 1019.72 1020.15 1020.63 1021.08 1021.54 1021.89 1022.28 1022.49 1022.77 1022.95 1023.06 1023.44 1023.66 1024.03 1024.40 1024.72 1024.96
1011.39 1010.71 1010.18 1009.66 1009.71 1009.79 1009.51 1008.94 1008.59 1008.39 1007.81 1007.32 1007.68 1008.06 1008.97 1009.66 1010.29 1010.84 1011.55 1012.10 1012.75 1013.52 1014.14 1014.63 1015.03 1015.45 1016.17 1016.82 1017.49 1018.08 1018.69 1019.35 1019.96 1020.44 1020.81 1021.25 1021.87 1022.29 1022.66 1022.97 1023.25 1023.40 1023.62 1024.12 1024.33 1024.69 1024.97 1025.15 1025.43
1010.77 1010.27 1010.00 1009.78 1009.57 1009.47 1009.28 1009.03 1008.77 1008.34 1007.79 1007.59 1007.85 1008.34 1008.58 1009.22 1009.97 1010.90 1011.46 1012.18 1012.72 1013.38 1014.03 1014.71 1015.16 1015.67 1016.20 1016.85 1017.55 1018.17 1018.81 1019.40 1020.01 1020.55 1020.91 1021.26 1021.86 1022.42 1022.82 1023.22 1023.49 1023.74 1024.00 1024.36 1024.88 1025.11 1025.33 1025.52 1025.79
1010.01 1010.27 1009.82 1009.58 1009.63 1009.62 1009.42 1009.22 1009.02 1008.14 1007.91 1007.95 1008.01 1008.45 1008.71 1009.15 1009.84 1010.79 1011.51 1012.09 1012.67 1013.32 1013.96 1014.73 1015.24 1015.70 1016.26 1016.86 1017.43 1018.09 1018.81 1019.47 1020.07 1020.59 1020.94 1021.33 1021.77 1022.28 1022.85 1023.41 1023.76 1024.02 1024.19 1024.55 1025.05 1025.27 1025.59 1025.83 1025.99
1010.20 1010.42 1009.94 1009.05 1009.50 1009.56 1009.71 1009.36 1008.91 1008.31 1008.38 1008.31 1008.29 1008.55 1008.96 1009.46 1010.09 1010.51 1011.02 1011.85 1012.49 1013.22 1013.89 1014.58 1015.40 1015.73 1016.36 1016.92 1017.40 1018.07 1018.75 1019.40 1020.09 1020.57 1021.01 1021.35 1021.76 1022.25 1022.81 1023.40 1023.90 1024.12 1024.35 1024.67 1025.27 1025.60 1025.77 1026.10 1026.32
1010.46 1010.66 1010.15 1007.66 1008.96 1009.52 1009.62 1008.35 1008.33 1008.40 1008.78 1008.84 1008.73 1009.18 1009.68 1010.22 1010.63 1011.09 1011.42 1012.02 1012.72 1013.29 1013.95 1014.67 1015.34 1015.92 1016.33 1016.85 1017.35 1017.90 1018.60 1019.24 1019.84 1020.45 1020.92 1021.27 1021.63 1022.15 1022.75 1023.32 1023.82 1024.16 1024.48 1024.82 1025.30 1025.79 1026.23 1026.50 1026.75
1010.07 1008.87 1008.67 1008.98 1008.13 1009.13 1009.36 1008.82 1007.93 1008.28 1008.93 1009.32 1009.31 1009.89 1010.48 1011.25 1011.92 1012.19 1012.27 1012.52 1012.95 1013.15 1013.90 1014.64 1015.21 1015.79 1016.27 1016.67 1017.18 1017.75 1018.33 1018.96 1019.60 1020.23 1020.76 1021.14 1021.52 1021.96 1022.55 1023.02 1023.59 1024.15 1024.61 1024.90 1025.33 1026.16 1026.30 1026.78 1027.08
1008.81 1008.77 1009.05 1008.89 1008.69 1008.95 1009.14 1008.87 1008.39 1008.23 1009.06 1009.78 1010.38 1010.95 1011.58 1012.27 1013.26 1013.45 1013.53 1013.43 1013.54 1013.87 1014.10 1014.51 1015.06 1015.57 1016.09 1016.62 1017.21 1017.73 1018.28 1018.76 1019.35 1019.90 1020.45 1020.95 1021.37 1021.80 1022.31 1022.86 1023.36 1023.88 1024.46 1024.92 1025.38 1025.95 1026.57 1026.87 1027.27
1009.29 1009.30 1009.17 1008.97 1008.80 1008.85 1008.81 1009.48 1009.09 1009.22 1009.54 1010.53 1011.46 1012.21 1012.97 1013.59 1014.56 1014.63 1014.63 1014.55 1014.52 1014.82 1014.96 1015.15 1015.38 1015.86 1016.20 1016.84 1017.54 1018.01 1018.39 1018.93 1019.36 1019.65 1020.07 1020.64 1021.07 1021.60 1022.14 1022.69 1023.25 1023.68 1024.15 1024.64 1025.08 1025.84 1026.54 1027.14 1027.52
1009.31 1009.61 1009.70 1009.24 1008.81 1009.20 1009.44 1009.63 1010.27 1010.54 1011.74 1012.26 1012.26 1013.35 1014.34 1014.94 1015.53 1015.88 1015.94 1015.84 1015.91 1016.10 1015.80 1015.88 1016.09 1016.25 1016.55 1016.80 1017.28 1017.70 1018.09 1018.74 1019.01 1019.41 1019.85 1020.29 1020.84 1021.29 1021.89 1022.42 1022.96 1023.38 1023.97 1024.40 1024.93 1025.38 1026.24 1026.85 1027.26
1008.99 1009.05 1009.67 1009.99 1009.19 1009.36 1009.77 1010.86 1011.45 1012.47 1013.25 1014.05 1014.55 1015.00 1015.67 1016.28 1016.81 1017.16 1017.24 1017.28 1017.39 1017.18 1016.93 1016.75 1016.84 1016.83 1017.01 1017.15 1017.47 1017.76 1018.07 1018.64 1019.25 1019.61 1019.98 1020.18 1020.57 1020.93 1021.42 1021.99 1022.57 1023.11 1023.51 1024.04 1024.53 1025.01 1025.44 1026.25 1027.07
1009.81 1009.29 1009.60 1009.92 1010.12 1009.51 1009.62 1011.24 1012.44 1013.53 1014.76 1015.93 1016.72 1016.99 1017.32 1017.65 1018.07 1018.28 1018.33 1018.62 1018.65 1018.35 1017.98 1017.72 1017.69 1017.66 1017.74 1017.70 1017.78 1017.98 1018.07 1018.67 1018.94 1019.22 1019.55 1019.89 1020.30 1020.73 1021.07 1021.59 1022.07 1022.52 1023.13 1023.74 1024.13 1024.29 1024.89 1025.55 1026.39
1010.18 1009.87 1009.77 1009.83 1010.13 1010.09 1010.40 1012.20 1013.15 1014.71 1016.40 1017.57 1018.43 1018.97 1019.04 1019.20 1019.29 1019.56 1019.46 1019.65 1019.58 1019.31 1019.05 1018.80 1018.51 1018.41 1018.45 1018.02 1018.09 1018.35 1018.70 1018.98 1019.06 1019.23 1019.46 1019.84 1020.18 1020.52 1020.92 1021.28 1021.87 1022.35 1022.72 1023.14 1023.55 1024.16 1024.54 1024.92 1025.76
1011.44 1010.62 1010.59 1010.11 1010.44 1009.98 1010.21 1012.00 1014.83 1016.06 1017.08 1018.74 1019.77 1020.43 1020.65 1020.57 1020.57 1020.54 1020.46 1020.36 1020.39 1020.15 1019.83 1019.75 1019.64 1019.49 1019.20 1019.16 1019.03 1019.03 1019.09 1019.23 1019.40 1019.58 1019.85 1020.07 1020.23 1020.40 1020.74 1021.20 1021.63 1021.98 1022.37 1022.80 1023.23 1023.61 1024.10 1024.57 1024.95
1013.43 1012.23 1011.96 1009.99 1009.85 1008.37 1010.60 1013.43 1016.57 1018.03 1018.50 1019.64 1020.67 1021.51 1022.00 1022.02 1021.83 1021.74 1021.60 1021.47 1021.38 1021.17 1020.86 1020.53 1020.32 1020.39 1020.27 1019.99 1019.76 1019.66 1019.59 1019.54 1019.67 1019.76 1019.89 1020.16 1020.34 1020.55 1020.78 1021.02 1021.41 1021.76 1022.03 1022.25 1022.59 1023.18 1023.57 1023.93 1024.59
1016.26 1014.85 1012.41 1010.73 1009.12 1009.74 1010.57 1014.67 1017.97 1019.95 1020.62 1021.26 1022.05 1022.63 1022.92 1023.16 1023.23 1023.08 1022.94 1022.77 1022.58 1022.31 1021.91 1021.56 1021.33 1021.20 1020.97 1020.66 1020.43 1020.25 1019.97 1019.77 1019.77 1019.83 1019.84 1019.92 1020.01 1020.12 1020.23 1020.63 1020.99 1021.33 1021.65 1021.98 1022.31 1022.65 1023.21 1023.55 1024.06
1018.90 1017.20 1016.70 1014.25 1011.16 1011.32 1014.20 1018.02 1020.19 1021.10 1021.83 1022.64 1023.22 1023.62 1024.04 1024.34 1024.43 1024.31 1024.03 1023.78 1023.55 1023.26 1022.92 1022.44 1021.95 1021.71 1021.55 1021.35 1020.98 1020.68 1020.48 1020.20 1020.07 1019.78 1019.83 1019.85 1019.83 1019.92 1020.10 1020.36 1020.69 1020.99 1021.33 1021.53 1021.87 1022.38 1022.83 1023.16 1023.66
1021.73 1021.05 1018.91 1016.50 1014.82 1014.43 1017.47 1019.47 1020.79 1021.92 1022.87 1023.61 1024.29 1024.76 1025.12 1025.23 1025.30 1025.25 1024.99 1024.68 1024.27 1023.91 1023.53 1023.08 1022.84 1022.55 1022.26 1021.93 1021.64 1021.34 1021.05 1020.70 1020.32 1019.98 1019.73 1019.71 1019.67 1019.64 1019.91 1020.17 1020.41 1020.71 1020.97 1021.18 1021.55 1022.12 1022.42 1022.85 1023.36
1023.57 1023.52 1022.24 1020.24 1018.05 1017.18 1019.66 1022.21 1022.79 1022.86 1023.87 1024.49 1025.16 1025.60 1025.94 1026.10 1026.15 1026.14 1025.96 1025.61 1025.19 1024.70 1024.31 1023.96 1023.50 1023.05 1022.70 1022.35 1022.09 1021.73 1021.39 1021.06 1020.63 1020.23 1019.84 1019.59 1019.54 1019.60 1019.74 1019.90 1020.09 1020.46 1020.84 1021.05 1021.46 1021.72 1022.12 1022.48 1022.83
1025.88 1025.37 1023.86 1022.42 1020.71 1020.30 1021.43 1024.41 1024.49 1024.54 1025.05 1025.51 1025.88 1026.19 1026.50 1026.83 1026.88 1026.86 1026.79 1026.56 1026.15 1025.80 1025.34 1024.90 1024.53 1023.99 1023.55 1023.07 1022.47 1021.98 1021.62 1021.27 1020.87 1020.39 1019.76 1019.43 1019.36 1019.14 1019.30 1019.54 1019.66 1020.03 1020.40 1020.67 1020.95 1021.38 1021.71 1021.95 1022.36
Wind_Speed
4 6 3 5 4 5 4 8 2 3 3 6 5 5 9 4 7 6 6 8 19 17 15 18 21 20 20 19 20 19 18 17 17 19 19 20 19 18 16 14 16 19 19 17 19 19 19 19 19
5 3 5 3 6 4 7 6 9 8 3 4 4 2 2 3 2 9 9 14 21 16 14 16 21 20 20 19 19 19 17 17 17 18 18 18 17 16 18 15 17 19 18 16 18 17 17 17 17
5 4 4 5 5 8 7 7 9 3 7 2 2 2 2 4 2 15 10 20 20 16 14 14 21 20 20 19 18 18 18 16 15 16 16 16 16 16 18 18 18 17 17 16 15 16 16 15 17
3 4 4 4 8 7 7 4 5 3 4 5 1 4 1 4 10 7 18 19 18 16 15 17 20 20 20 19 18 17 17 16 15 15 16 16 15 13 18 21 18 17 15 15 13 14 15 17 17
4 3 1 3 7 5 6 4 2 4 2 5 6 4 3 3 5 14 18 17 18 16 14 15 20 21 20 19 18 18 18 17 17 17 16 15 16 17 21 19 17 16 14 13 17 17 18 19 19
3 3 2 10 6 5 6 7 1 3 3 0 5 7 4 5 13 15 17 16 15 15 15 14 18 20 20 19 18 19 19 18 17 16 16 15 16 15 18 17 18 16 15 14 17 18 19 19 20
6 4 5 2 6 6 6 7 7 5 3 6 6 7 1 6 11 13 16 13 13 13 13 12 12 13 17 17 19 19 19 18 17 16 15 15 14 13 15 13 17 15 14 14 15 16 17 19 19
5 4 3 6 5 9 6 7 5 10 9 1 7 7 8 9 13 13 14 14 12 12 12 12 11 11 10 11 14 17 18 16 16 13 13 12 12 12 13 10 13 13 12 13 13 13 13 17 17
4 2 5 7 9 7 3 6 4 1 7 3 7 6 6 19 16 14 15 12 12 12 13 12 12 10 9 8 10 13 15 13 14 12 12 8 5 7 8 6 10 12 11 12 13 13 15 15 14
7 6 11 8 7 6 3 5 4 6 6 3 3 6 19 19 18 18 17 16 16 14 13 12 13 12 10 8 8 8 9 7 7 6 7 5 6 5 5 7 10 9 11 13 14 15 14 10 5
7 12 11 5 6 3 2 2 3 6 6 8 11 17 23 21 18 18 16 17 16 15 10 13 13 12 11 8 6 4 5 5 5 7 6 5 5 4 4 3 3 3 6 4 7 6 4 6 4
5 14 7 8 5 4 4 5 3 7 7 8 16 24 22 21 17 17 16 17 17 14 11 11 12 12 9 7 7 7 6 5 5 5 7 6 3 4 4 3 4 4 3 5 5 4 5 6 6
11 3 16 6 3 5 1 5 5 6 10 2 12 20 26 23 19 14 14 14 15 15 13 11 13 11 10 10 8 7 7 6 6 5 5 5 5 5 4 4 4 4 4 4 4 5 4 5 5
5 18 6 7 16 4 5 4 3 4 1 7 17 19 22 24 23 15 15 16 16 18 14 14 12 10 10 9 11 8 7 6 6 5 6 6 5 5 5 4 4 4 3 3 5 4 4 4 4
12 1 16 23 2 8 5 10 8 7 1 11 18 17 18 18 20 21 18 16 18 15 16 16 12 11 11 10 9 9 9 7 6 5 6 7 6 6 6 5 4 4 3 5 5 4 4 4 3
10 5 11 3 18 5 9 16 8 6 7 8 15 12 11 7 12 10 15 15 12 14 16 13 11 12 12 11 8 8 8 7 6 6 6 7 8 7 6 5 4 4 4 4 4 3 3 4 4
7 18 21 11 13 7 12 8 12 8 8 8 14 10 10 9 9 7 4 7 11 14 13 13 13 15 12 10 8 8 10 8 7 6 6 7 7 8 6 5 5 5 4 3 4 3 3 2 3
13 22 4 16 5 11 7 5 1 9 10 11 7 8 10 9 8 6 6 5 7 6 6 9 8 10 11 9 7 6 7 6 7 7 7 8 7 8 6 5 6 7 5 4 2 4 3 3 3
4 3 11 3 6 7 18 8 3 5 7 9 7 8 8 9 6 8 8 6 8 8 7 6 8 6 6 7 6 6 7 6 7 6 9 9 7 9 8 5 6 6 7 6 6 4 4 2 3
17 15 6 5 8 8 9 12 3 5 5 6 10 9 8 6 8 10 9 10 10 6 6 7 7 6 5 4 3 4 4 3 4 6 6 8 7 9 8 8 7 8 6 7 7 5 3 3 4
13 24 14 3 2 1 8 2 5 5 8 10 12 10 12 10 8 9 11 12 9 9 8 8 7 7 5 4 4 3 4 4 3 3 4 5 8 9 10 10 8 7 6 7 8 7 6 4 3
15 13 19 13 4 9 6 6 4 3 6 10 9 10 11 11 11 9 11 11 9 8 8 9 9 8 7 5 3 3 3 4 3 4 4 4 7 8 7 9 9 10 7 6 8 7 6 5 6
12 0 18 18 10 2 5 3 4 7 4 7 8 10 10 11 11 10 10 9 9 8 8 8 9 10 8 7 5 3 3 2 2 2 4 4 5 6 6 7 7 7 7 7 9 7 6 6 4
6 10 5 15 12 11 11 13 5 4 3 6 8 10 10 12 12 12 10 10 10 9 9 9 8 9 9 7 7 5 2 2 2 1 3 2 2 3 6 6 6 7 8 8 7 8 8 6 5
11 12 12 13 15 14 16 7 4 6 8 10 12 12 10 10 12 12 13 12 12 13 12 9 10 10 9 8 7 6 4 1 5 4 4 4 3 3 5 6 6 5 6 9 8 8 8 8 7
7 6 8 8 15 17 11 11 4 8 11 13 13 11 12 12 10 12 12 11 11 12 12 11 10 10 9 8 7 5 4 1 3 4 3 3 4 4 5 6 6 6 7 7 6 6 6 6 6
6 2 6 3 5 15 5 4 5 9 11 11 12 13 12 11 10 11 11 11 11 11 11 11 10 10 10 9 8 7 6 5 4 4 3 3 4 4 5 6 6 6 7 7 8 5 8 8 7
4 6 1 3 6 5 4 4 2 12 11 11 11 10 9 10 11 11 11 11 10 11 10 11 11 10 8 8 7 6 6 6 5 4 4 6 5 5 5 6 6 6 6 6 7 6 6 7 5
7 5 6 4 0 4 6 2 10 8 10 12 11 11 9 9 9 10 10 10 11 11 12 12 12 12 11 10 8 7 6 6 5 4 4 3 4 6 6 7 7 7 7 6 7 6 7 9 8
4 12 3 3 4 5 5 3 6 10 11 11 11 11 10 10 8 9 10 11 12 12 12 12 12 12 11 11 9 7 7 7 6 5 6 6 5 5 6 7 8 10 11 11 10 9 7 9 9
Wind_Direction
109 74 76 43 87 68 230 246 264 229 238 209 159 153 188 147 167 203 147 146 135 145 148 144 141 137 133 129 126 123 122 117 112 120 116 111 102 106 115 103 95 100 100 95 97 98 92 90 88
102 98 48 83 110 159 247 227 225 205 236 116 109 86 139 164 90 124 130 144 143 145 145 146 144 139 133 134 130 127 124 121 116 111 110 106 108 116 104 109 88 90 94 101 97 100 100 93 89
105 61 101 141 167 197 214 218 229 226 239 280 127 81 152 170 115 147 134 145 144 145 145 148 145 142 137 140 136 135 127 126 128 125 119 119 120 119 114 110 99 98 107 107 108 110 107 99 96
125 30 34 136 219 249 201 230 204 203 267 225 149 110 40 231 156 164 143 146 145 145 147 151 148 145 143 142 139 134 129 129 121 120 121 120 115 118 114 113 111 108 109 109 116 122 120 110 99
36 68 163 249 243 250 246 266 179 160 225 187 158 197 13 18 130 141 148 148 150 145 147 150 152 148 147 145 143 137 133 130 127 125 124 122 113 108 117 116 116 113 103 100 109 106 108 98 98
64 103 125 224 240 242 257 217 199 221 191 70 120 128 160 137 139 148 146 147 148 147 148 151 150 150 149 148 145 140 137 135 134 134 132 127 119 113 121 119 115 112 103 99 107 107 105 102 94
142 117 212 225 237 278 221 162 187 202 189 213 171 119 282 153 146 146 147 142 141 145 146 147 148 147 149 152 147 147 142 140 140 136 135 127 120 111 109 107 116 113 102 94 97 104 102 101 99
128 126 191 220 204 263 215 180 170 171 233 104 157 166 173 172 147 141 143 145 142 144 147 150 145 147 148 146 145 146 144 143 135 131 127 120 119 112 112 104 106 113 101 91 98 106 103 94 103
143 134 217 215 165 236 215 188 177 193 140 209 184 167 157 142 143 140 141 149 152 153 157 153 145 139 134 133 143 136 139 138 127 120 117 103 103 111 108 125 115 112 108 101 92 85 89 88 87
172 182 217 204 186 216 196 183 186 152 152 176 96 68 134 147 154 153 156 159 163 159 160 155 152 147 137 136 132 126 141 134 129 121 119 108 110 112 107 128 119 125 119 117 99 96 86 80 72
191 217 212 227 216 236 240 235 205 163 221 190 170 155 154 156 159 164 162 161 167 160 156 162 154 148 140 138 128 121 124 126 123 124 119 116 110 100 92 76 77 82 104 83 92 82 74 97 98
204 223 202 213 201 235 230 301 237 191 222 187 165 161 158 162 163 165 164 162 160 160 158 156 153 147 133 134 138 141 135 128 129 128 128 126 118 117 116 111 105 86 81 103 95 88 93 97 95
222 236 230 246 238 211 280 249 250 252 261 193 153 162 166 168 162 164 161 161 157 164 161 162 158 148 138 138 139 145 141 140 138 135 131 133 133 136 128 118 111 107 106 114 100 104 100 107 108
221 229 244 226 231 257 202 236 56 293 149 159 156 169 170 171 169 158 163 166 169 167 164 163 155 149 145 148 150 152 147 135 141 137 147 137 137 141 134 130 128 121 128 125 118 123 118 105 120
226 276 246 242 210 225 142 277 208 245 162 174 170 170 170 172 168 174 168 166 167 167 163 163 159 152 152 156 150 157 159 147 149 150 147 147 145 147 141 137 142 148 129 118 108 99 90 103 96
186 171 246 221 197 240 154 249 215 191 164 189 174 164 164 142 170 166 169 165 161 159 167 163 164 167 162 161 158 155 156 157 155 154 157 159 159 157 142 146 154 148 134 129 111 109 76 99 122
209 221 221 263 197 156 181 231 229 178 170 178 181 160 134 115 79 63 84 147 158 158 159 168 169 175 166 162 156 156 159 163 162 154 163 168 157 161 153 156 154 146 140 141 131 94 102 123 118
216 220 233 222 211 183 193 233 163 170 160 176 172 140 130 109 68 54 78 83 77 84 120 158 161 166 161 155 152 150 158 162 163 170 173 169 173 156 155 149 151 154 154 149 133 119 76 122 129
75 131 240 220 210 167 212 201 198 199 159 143 139 141 118 95 68 54 57 54 86 49 74 75 111 109 126 136 155 169 168 176 177 178 176 175 169 162 160 157 150 165 169 165 161 126 124 86 134
227 248 264 244 198 175 209 206 90 37 56 358 145 137 128 105 72 59 54 55 49 65 53 66 71 85 97 103 138 148 154 151 168 174 174 174 164 165 164 165 175 174 159 158 169 151 133 114 163
224 220 218 279 168 41 130 232 183 63 64 50 55 79 76 83 75 62 61 52 38 43 37 59 56 61 67 88 112 86 87 83 90 134 168 185 177 167 170 174 172 178 171 173 171 173 156 139 181
243 214 229 212 278 203 181 215 203 135 88 53 42 57 71 69 63 50 53 44 32 28 38 51 56 55 47 50 106 136 144 146 169 163 170 163 180 174 170 175 176 177 183 167 187 181 177 142 158
240 101 206 218 206 319 194 131 159 134 147 111 65 59 59 61 64 51 46 41 34 29 34 38 53 45 23 36 46 98 112 70 49 71 157 156 167 171 181 170 169 171 180 192 183 170 170 168 155
309 187 269 208 206 230 195 200 220 186 159 125 84 58 52 58 56 49 42 42 35 29 32 37 43 40 29 30 44 56 119 135 140 157 168 181 184 177 184 175 176 181 182 181 186 183 182 184 160
18 186 211 203 200 223 184 206 108 13 52 109 104 82 52 44 50 44 38 34 30 26 26 31 31 34 25 23 34 47 27 238 202 203 202 178 171 182 194 181 182 186 189 197 185 188 184 171 186
308 311 199 221 188 192 185 186 132 83 73 77 73 72 64 46 38 41 38 35 30 25 22 25 29 32 21 21 16 15 12 320 232 221 213 211 196 192 177 185 179 184 180 177 177 176 189 184 192
341 307 344 321 300 185 105 49 88 105 83 72 73 63 52 44 36 32 30 32 27 25 21 19 21 25 23 14 11 9 0 11 351 271 216 223 217 206 185 182 183 185 185 179 175 177 190 181 191
57 338 323 208 187 143 26 85 99 154 120 95 73 58 50 46 39 31 28 22 22 21 18 22 20 25 17 14 5 4 348 345 338 324 266 226 232 217 196 192 191 185 191 180 182 185 174 175 192
353 31 329 269 97 114 129 79 306 129 113 97 83 70 57 47 39 32 26 22 19 19 19 16 14 15 12 7 358 353 351 342 334 321 323 267 235 214 206 200 191 191 207 190 187 193 183 187 188
91 353 290 317 25 50 65 55 10 82 87 85 77 76 69 58 47 37 27 22 22 18 15 12 9 8 5 356 354 351 356 351 348 335 349 353 298 239 214 210 197 209 217 210 196 195 190 196 192